Location: Belmont
(13.0833°N, 59.6000°W)
Time: 05:39:09
(UTC+00:00)

Genesis I - Pass Details

Date: 17 September 2019
Orbit: 488 x 537 km, 64.5° (Epoch: 20 October)

Event Time Altitude Azimuth Distance (km) Brightness Sun altitude
Rises 23:16:50 0° 340° (NNW) 2,603 7.1 -19.9°
Reaches altitude 10° 23:19:01 10° 343° (NNW) 1,709 6.1 -20.4°
Enters shadow 23:22:29 64° 28° (NNE) 555 3.1 -21.3°
